Weather in Mandi Bahauddin

Pakistan     32°34′02″N   73°28′16″E
temp.,
°C
wind,
m/s
gust,
m/s
humid.,
%
clouds,
%
prec.,
mm/h
press.,
hPa
HPBL,
m
26 february, fri
fri2623:00+19ene223529 0.0 100923
02:00+18ne343797 0.0 100839
05:00+16ene224296 0.0 100723
08:00+18e223977 0.0 100895
11:00+26sse342388 0.0 1008899
14:00+29se451797 0.0 10041597
17:00+29wsw472154 0.0 1003382
20:00+20e34320 0.0 100447
27 february, sat
sat2723:00+17wsw22410 0.0 100536
02:00+15sw22280 0.0 100423
05:00+13sw23330 0.0 100429
08:00+14n11330 0.0 100693
11:00+23sw24200 0.0 1007896
14:00+28sw35120 0.0 10052436
17:00+25nw46180 0.0 1004267
20:00+18nw33290 0.0 100623
28 february, sun
sun2823:00+16n33370 0.0 100728
02:00+14ene23410 0.0 100823
05:00+13ne33360 0.0 100828
08:00+16ne34340 0.0 1010116
11:00+25nne33190 0.0 1011806
14:00+29nne12140 0.0 10092934
17:00+26nw34180 0.0 1007185
20:00+18nw48250 0.0 1008110
1 march, mon
mon123:00+17nnw34270 0.0 100964
02:00+16n23280 0.0 100924
05:00+12se11350 0.0 100923
08:00+16wnw01310 0.0 101135
11:00+26nnw22190 0.0 1012597
14:00+29nnw33120 0.0 10112980
17:00+27nw34160 0.0 1010198
20:00+19nw45210 0.0 101248
2 march, tue
tue223:00+18nnw34220 0.0 101354
02:00+16nne22270 0.0 101223
05:00+14n11370 0.0 101123
08:00+17wsw22300 0.0 101371
11:00+27nw33200 0.0 1013630
14:00+31nnw55110 0.0 10102309
17:00+28nw46150 0.0 1009487
20:00+19nw34210 0.0 100932